Overview Statistics Trail Chart Weather Telemetry Raw packets
 

This is the latest recevied weather packets stored in our database for station/object KB1WCR. If no packets are shown the sender has not sent any weather packets the latest 10 day(s).

<< 43 44 45 46 47 48 49 >>
Time Temp. Humidity Pressure Rain* Wind** Luminosity Snow
1788112482 21.67° C 78% 1017.1 hPa 0 mm - 99 W/m² -
1788112176 21.67° C 78% 1017 hPa 0 mm - 79 W/m² -
1788111872 22.22° C 78% 1017.2 hPa 0 mm - 88 W/m² -
1788111562 22.22° C 76% 1017.1 hPa 0 mm - 104 W/m² -
1788111257 22.22° C 77% 1017.3 hPa 0 mm - 117 W/m² -
1788110953 22.22° C 76% 1017.4 hPa 0 mm - 120 W/m² -
1788110649 22.22° C 77% 1017.3 hPa 0 mm - 115 W/m² -
1788110345 22.78° C 74% 1017.4 hPa 0 mm - 108 W/m² -
1788110040 22.78° C 74% 1017.5 hPa 0 mm - 90 W/m² -
1788109739 22.78° C 71% 1017.3 hPa 0 mm - 93 W/m² -
1788109434 23.33° C 72% 1017.2 hPa 0 mm - 112 W/m² -
1788109132 23.33° C 73% 1017.4 hPa 0 mm - 118 W/m² -
1788108829 23.33° C 72% 1017.3 hPa 0 mm - 123 W/m² -
1788108525 23.33° C 71% 1017.1 hPa 0 mm - 106 W/m² -
1788108220 23.33° C 72% 1017.2 hPa 0 mm - 109 W/m² -
1788107916 23.89° C 69% 1017.2 hPa 0 mm - 132 W/m² -
1788107612 23.89° C 69% 1017.3 hPa 0 mm - 132 W/m² -
1788107306 24.44° C 69% 1017.3 hPa 0 mm - 171 W/m² -
1788107003 24.44° C 67% 1017.3 hPa 0 mm - 192 W/m² -
1788106698 24.44° C 67% 1017.3 hPa 0 mm - 187 W/m² -
1788106397 24.44° C 68% 1017.5 hPa 0 mm - 232 W/m² -
1788106092 24.44° C 66% 1017.4 hPa 0 mm - 234 W/m² -
1788105799 24.44° C 66% 1017.6 hPa 0 mm - 254 W/m² -
1788105483 25° C 68% 1017.6 hPa 0 mm - 263 W/m² -
1788105179 24.44° C 69% 1017.5 hPa 0 mm - 295 W/m² -

* Rain latest hour (hover to see other rain measurements)
** Current wind speed in m/s (hover to see current wind gust speed)